TimePST,TemperatureF,Dew PointF,Humidity,Sea Level PressureIn,VisibilityMPH,Wind Direction,Wind SpeedMPH,Gust SpeedMPH,PrecipitationIn,Events,Conditions,WindDirDegrees,DateUTC
12:53 AM,48.0,-9999,N/A,28.98,10.0,ESE,9.2,-,0.02,,Overcast,120,2012-12-17 08:53:00
1:53 AM,50.0,-9999,N/A,28.96,10.0,SSE,15.0,23.0,0.01,,Overcast,150,2012-12-17 09:53:00
2:23 AM,50.0,-9999,N/A,28.96,10.0,SSE,16.1,28.8,0.00,Rain,Light Rain,160,2012-12-17 10:23:00
2:53 AM,50.0,-9999,N/A,29.02,10.0,South,17.3,32.2,0.00,,Overcast,180,2012-12-17 10:53:00
3:53 AM,48.0,-9999,N/A,29.06,10.0,South,15.0,28.8,0.05,Rain,Light Rain,170,2012-12-17 11:53:00
4:53 AM,48.0,43.0,83,29.13,10.0,South,21.9,43.7,0.00,,Overcast,180,2012-12-17 12:53:00
5:14 AM,48.2,37.4,66,29.14,10.0,South,17.3,36.8,N/A,,Scattered Clouds,180,2012-12-17 13:14:00
5:53 AM,48.0,37.0,66,29.23,10.0,South,18.4,36.8,N/A,,Partly Cloudy,190,2012-12-17 13:53:00
6:53 AM,48.0,36.0,63,29.31,10.0,South,19.6,33.4,N/A,,Clear,180,2012-12-17 14:53:00
7:53 AM,46.9,36.0,66,29.39,10.0,South,16.1,31.1,N/A,,Clear,190,2012-12-17 15:53:00
8:53 AM,46.0,37.0,71,29.46,10.0,South,16.1,26.5,N/A,,Scattered Clouds,190,2012-12-17 16:53:00
9:53 AM,45.0,35.1,68,29.53,10.0,South,15.0,26.5,N/A,,Overcast,190,2012-12-17 17:53:00
10:53 AM,45.0,35.1,68,29.58,10.0,South,13.8,25.3,N/A,,Mostly Cloudy,170,2012-12-17 18:53:00
11:53 AM,46.0,33.1,61,29.62,10.0,South,9.2,25.3,N/A,,Mostly Cloudy,190,2012-12-17 19:53:00
12:53 PM,46.0,34.0,63,29.66,10.0,South,17.3,27.6,N/A,,Partly Cloudy,180,2012-12-17 20:53:00
1:53 PM,46.0,33.1,61,29.68,10.0,South,15.0,27.6,N/A,,Clear,180,2012-12-17 21:53:00
4:53 PM,42.1,30.9,65,29.78,10.0,South,10.4,20.7,N/A,,Clear,190,2012-12-18 00:53:00
5:53 PM,41.0,32.0,70,29.82,10.0,SSE,9.2,-,N/A,,Mostly Cloudy,150,2012-12-18 01:53:00
6:53 PM,39.9,30.9,70,29.84,10.0,SSE,8.1,-,N/A,,Mostly Cloudy,150,2012-12-18 02:53:00
7:53 PM,39.9,30.9,70,29.87,10.0,SSE,5.8,-,N/A,,Overcast,150,2012-12-18 03:53:00
8:53 PM,39.0,30.9,73,29.88,10.0,SSE,9.2,-,N/A,,Overcast,150,2012-12-18 04:53:00
9:53 PM,39.0,32.0,76,29.91,10.0,SSE,8.1,-,N/A,,Overcast,150,2012-12-18 05:53:00
10:05 PM,39.2,32.0,75,29.89,10.0,SSE,8.1,-,N/A,,Overcast,150,2012-12-18 06:05:00
10:36 PM,39.2,32.0,75,29.89,10.0,SSE,8.1,-,N/A,,Overcast,160,2012-12-18 06:36:00
10:53 PM,39.0,32.0,76,29.91,10.0,South,12.7,18.4,0.00,Rain,Light Rain,170,2012-12-18 06:53:00
11:11 PM,39.2,32.0,75,29.89,10.0,SSE,9.2,16.1,0.00,,Overcast,150,2012-12-18 07:11:00
11:53 PM,39.0,32.0,76,29.91,10.0,SSE,10.4,18.4,0.00,,Overcast,150,2012-12-18 07:53:00